Home   Weather   Bradford   Past weeks

Flag for United Kingdom Past Weather in Bradford, England, United Kingdom — Yesterday and Last 2 Weeks

Now
46 °F

Clear.


Feels Like: 46 °F
Forecast: 40 / 55 °F
Wind: 2 mph from Southwest

Location: Leeds And Bradford

Current Time: Oct 1, 2016 at 12:51:06 AM

Latest Report: Oct 1, 2016 at 12:20 AM


Visibility: 10 mi

Pressure: 29.74 "Hg

Humidity: 93%

Dew Point: 45 °F

Location of BradfordLocation

Past Weather in Bradford — Graph

°F

Bradford Temperature Yesterday

Maximum temperature yesterday: 55 °F (at 12:20 PM)
Minimum temperature yesterday: 45 °F (at 7:20 AM)
Average temperature yesterday: 50 °F

High & Low Weather Summary for the Past Weeks

 TemperatureHumidityPressure
High70 °F (Sep 28, 3:20 PM)100% (Sep 15, 11:20 PM)30.21 "Hg (Sep 15, 11:20 PM)
Low45 °F (Sep 30, 7:20 AM)51% (Sep 22, 4:20 PM)29.68 "Hg (Sep 25, 2:20 AM)
Average55 °F85%30.01 "Hg
* Reported Sep 15 11:20 PM — Sep 30 11:20 PM, Bradford, Weather by CustomWeather, © 2016

Note: Actual official high and low records may vary slightly from our data, if they occured in-between our weather recording intervals... More about our weather records

Advertising

Bradford Weather History for the Previous 24 Hours

Scroll right to see more
 ConditionsComfort  
Time TempWeatherWind HumidityBarometerVisibility
11:20 PM
Fri, Sep 30
46 °FClear.5 mph100%29.77 "Hg10 mi
10:50 PM46 °FClear.5 mph93%29.77 "Hg10 mi
10:20 PM46 °FClear.3 mph93%29.77 "Hg10 mi
9:50 PM48 °FClear.3 mph94%29.77 "Hg10 mi
9:20 PM46 °FPassing clouds.5 mph93%29.77 "HgN/A
8:50 PM46 °FClear.3 mph93%29.77 "Hg10 mi
8:20 PM48 °FPassing clouds.5 mph87%29.77 "HgN/A
7:50 PM48 °FPassing clouds.6 mph94%29.77 "HgN/A
7:20 PM50 °FPassing clouds.5 mph88%29.77 "HgN/A
6:50 PM50 °FPassing clouds.6 mph88%29.77 "HgN/A
6:20 PM52 °FScattered clouds.7 mph82%29.77 "HgN/A
5:50 PM52 °FScattered clouds.7 mph82%29.77 "HgN/A
5:20 PM54 °FScattered showers. Scattered clouds.7 mph82%29.77 "HgN/A
4:50 PM54 °FScattered clouds.5 mph82%29.77 "HgN/A
4:20 PM54 °FScattered showers. Scattered clouds.7 mph82%29.77 "HgN/A
3:50 PM52 °FSprinkles. Scattered clouds.12 mph82%29.77 "HgN/A
3:20 PM52 °FSprinkles. Scattered clouds.7 mph88%29.77 "HgN/A
2:50 PM50 °FScattered showers. Scattered clouds.9 mph88%29.77 "HgN/A
2:20 PM54 °FSprinkles. Scattered clouds.8 mph77%29.77 "HgN/A
1:50 PM52 °FScattered clouds.5 mph88%29.77 "HgN/A
1:20 PM52 °FSprinkles. Scattered clouds.13 mph82%29.77 "HgN/A
12:50 PM54 °FScattered clouds.9 mph77%29.77 "HgN/A
12:20 PM55 °FScattered clouds.12 mph72%29.77 "HgN/A
11:50 AM54 °FPassing clouds.12 mph72%29.77 "HgN/A
11:20 AM54 °FPassing clouds.13 mph77%29.77 "HgN/A
10:50 AM54 °FPassing clouds.13 mph77%29.77 "HgN/A
10:20 AM52 °FPassing clouds.14 mph82%29.77 "HgN/A
9:50 AM52 °FPassing clouds.14 mph82%29.77 "HgN/A
9:20 AM50 °FPassing clouds.9 mph88%29.77 "HgN/A
8:50 AM48 °FPassing clouds.9 mph94%29.77 "HgN/A
8:20 AM46 °FPassing clouds.7 mph93%29.77 "HgN/A
7:50 AM46 °FPassing clouds.8 mph93%29.77 "HgN/A
7:20 AM45 °FPassing clouds.7 mph100%29.77 "HgN/A
6:50 AM46 °FPassing clouds.8 mph93%29.77 "HgN/A
6:20 AM46 °FPassing clouds.7 mph93%29.77 "HgN/A
5:50 AM46 °FPassing clouds.7 mph93%29.77 "HgN/A
5:20 AM46 °FLight rain. Passing clouds.7 mph100%29.77 "HgN/A
4:50 AM48 °FPassing clouds.8 mph94%29.77 "HgN/A
4:20 AM48 °FPassing clouds.7 mph94%29.77 "HgN/A
3:50 AM46 °FPassing clouds.3 mph93%29.77 "HgN/A
3:20 AM46 °FPassing clouds.5 mph100%29.77 "HgN/A
2:20 AM50 °FPassing clouds.12 mph88%29.80 "HgN/A
1:50 AM50 °FPassing clouds.9 mph88%29.80 "HgN/A
1:20 AM50 °FPassing clouds.10 mph88%29.80 "HgN/A
12:50 AM50 °FPassing clouds.10 mph88%29.80 "HgN/A
12:20 AM50 °FPassing clouds.8 mph88%29.80 "HgN/A
Weather by CustomWeather, © 2016

See weather overviewHow to use our weather pages